Dewpoint
72 71 71 69 61 58 53 54 56 55 55 58 57 57 56 60 56 55 68 71 70 70 71 71 75 75 75 76 77 77 76 76 76 76 75 74 75 74 74 74 73 73 73 73 73 73 73 72 72
72 70 70 63 56 53 52 55 54 55 58 59 59 58 58 59 63 66 68 70 69 68 69 71 75 76 76 77 77 77 75 75 75 75 75 74 74 74 74 73 73 74 73 73 73 73 73 72 71
70 69 64 60 55 51 50 54 56 57 58 57 59 60 59 61 64 65 68 68 67 68 69 73 75 76 76 76 76 76 76 75 75 75 75 74 74 73 73 73 73 74 74 73 73 73 73 72 71
69 68 66 58 51 53 53 56 57 57 58 59 59 59 62 64 64 66 67 67 66 68 69 74 76 75 76 76 76 75 75 75 75 75 74 74 73 73 73 73 74 74 73 73 73 73 72 71 71
66 64 58 54 51 53 55 56 58 57 58 58 58 59 62 66 67 67 67 67 66 67 70 71 76 76 76 75 75 75 75 75 75 75 74 74 73 73 73 73 73 74 73 73 72 72 72 72 71
64 61 51 47 49 53 56 57 58 58 59 58 58 59 62 67 66 67 67 67 67 67 69 70 75 76 75 75 75 75 75 75 75 75 74 73 73 73 72 72 73 73 73 72 72 72 71 71 72
57 53 48 48 49 52 56 58 57 57 57 57 59 58 64 64 66 67 67 68 68 68 69 70 70 73 75 75 74 75 75 75 74 74 74 73 73 72 72 72 72 72 72 71 71 71 71 71 72
59 52 47 48 49 50 57 57 59 57 57 59 60 58 60 64 66 67 67 68 68 69 69 71 69 70 72 72 74 74 74 75 74 74 74 73 73 72 72 72 72 72 71 71 71 71 71 71 71
58 49 49 46 49 50 58 57 58 59 58 57 60 60 61 66 66 66 66 67 68 69 69 69 69 72 74 73 72 73 74 74 74 74 73 73 73 73 72 73 74 72 71 71 71 71 71 72 72
55 53 49 48 50 46 56 57 57 57 56 56 60 61 63 65 66 65 65 65 66 67 68 69 70 71 72 70 73 73 71 70 71 71 74 73 73 73 72 73 74 72 71 71 71 72 72 71 70
59 53 53 48 50 53 55 56 57 57 55 56 59 62 63 64 64 64 64 64 65 66 68 69 71 72 71 71 71 71 71 71 71 74 74 73 73 74 72 73 72 73 71 70 70 71 70 71 70
56 57 55 52 52 55 56 57 57 57 53 55 60 62 63 63 63 63 63 64 65 67 68 69 70 72 72 71 71 71 71 71 70 71 74 73 71 72 73 72 73 73 71 72 73 72 73 71 71
59 55 51 52 51 48 56 55 55 57 55 58 61 62 62 62 63 63 64 64 66 67 67 69 71 73 73 73 71 71 72 70 69 71 72 71 71 73 73 73 72 73 72 72 75 74 72 71 70
48 52 47 38 41 44 48 50 56 56 57 60 61 61 61 62 62 64 65 65 66 67 67 69 71 72 73 73 74 73 72 71 71 69 70 72 71 74 73 73 71 73 73 73 73 74 72 71 71
33 28 29 28 32 34 40 44 53 56 59 60 60 60 61 62 63 64 65 66 66 66 68 69 71 71 73 73 73 73 72 71 69 69 72 72 72 73 75 73 71 74 74 75 74 72 71 66 64
26 27 25 27 30 32 38 32 46 56 58 59 59 60 61 62 63 65 65 66 67 67 68 70 69 70 72 72 73 72 71 70 69 69 69 72 72 74 74 73 71 72 74 77 74 72 69 67 64
23 20 25 26 29 35 40 33 43 56 57 58 59 59 60 62 64 65 65 66 67 68 69 69 70 70 71 73 72 72 72 70 68 69 69 72 73 74 73 72 72 74 73 76 73 71 70 65 64
19 21 22 24 28 38 37 40 46 55 57 58 59 59 60 60 62 64 65 66 67 68 70 70 70 71 72 71 72 71 70 68 68 68 71 73 73 74 74 72 74 74 72 73 72 72 69 66 65
19 18 23 25 26 37 37 38 44 55 56 57 59 59 59 60 61 63 64 65 66 68 69 71 71 73 71 70 69 68 66 68 69 71 73 74 74 75 75 72 74 74 73 73 73 71 69 64 67
20 18 21 25 24 27 30 37 42 53 56 57 58 59 59 59 60 62 64 65 66 68 69 71 72 74 73 71 71 69 69 68 70 72 73 74 74 75 75 75 73 74 72 74 73 71 67 66 67
23 17 18 21 23 27 32 29 39 50 54 56 58 59 60 59 60 62 63 64 65 68 70 72 73 74 73 73 71 71 71 71 71 71 72 73 74 75 75 75 74 74 73 71 73 71 69 62 66
20 21 19 21 22 21 30 24 38 41 52 55 56 58 59 60 61 62 63 64 64 68 69 72 73 74 73 75 72 73 68 67 68 70 71 72 74 74 75 75 75 75 73 73 72 71 69 66 63
21 23 21 19 22 23 23 25 30 44 48 52 54 57 58 59 60 62 63 65 65 66 67 69 73 74 74 75 74 72 72 69 69 70 74 75 75 74 74 75 75 75 73 74 74 72 70 65 63
26 25 24 24 21 20 24 23 26 31 40 46 53 55 58 59 60 62 63 65 65 66 66 68 72 73 74 74 74 74 73 73 69 71 70 70 70 71 74 74 75 75 74 74 73 73 71 68 66
26 22 19 18 18 17 24 24 27 30 36 36 47 53 56 58 60 60 62 64 66 67 68 68 71 72 73 73 73 74 74 74 74 73 70 71 69 70 74 75 75 74 75 74 74 73 71 70 67
25 20 14 16 11 12 25 22 24 29 30 39 41 47 54 56 57 58 61 64 65 66 68 68 70 71 72 72 73 74 74 71 71 72 69 69 69 70 74 75 75 75 75 74 73 71 69 69 68
23 22 19 14 18 15 15 21 25 29 29 35 40 43 49 54 56 58 60 62 63 65 67 69 70 71 72 71 73 73 74 74 72 74 74 70 73 70 73 74 75 75 74 73 73 70 70 69 69
22 22 18 18 16 15 15 21 19 32 29 33 37 40 45 49 53 56 59 61 62 63 66 68 69 70 71 71 72 71 72 73 73 74 74 73 73 73 73 74 74 74 74 74 73 70 71 69 67
19 21 20 18 17 11 9 11 27 32 39 36 34 38 41 46 49 51 56 59 62 62 64 66 68 69 70 71 72 72 72 72 73 73 74 74 74 74 74 74 74 74 74 73 73 72 70 69 69
21 21 21 17 24 19 15 11 23 28 29 36 34 37 41 46 50 50 51 55 58 62 62 64 66 67 69 70 71 72 72 73 72 73 73 74 74 74 75 74 74 74 74 73 73 71 69 69 68
Lifted_Index
-2 -2 -2 -2 -2 -2 -1 -1 -1 -1 -1 -0 0 1 1 1 1 0 -0 -1 -1 -1 -2 -3 -4 -4 -5 -5 -6 -6 -6 -6 -6 -6 -6 -6 -6 -6 -5 -5 -5 -5 -6 -5 -5 -5 -5 -5 -4
-2 -2 -2 -2 -1 -1 -1 -1 -1 -1 -1 -0 -0 0 1 1 1 0 -0 -1 -1 -1 -2 -3 -4 -5 -5 -5 -6 -6 -6 -6 -6 -6 -6 -6 -6 -6 -5 -5 -6 -6 -6 -5 -5 -5 -5 -5 -4
-3 -3 -2 -2 -2 -1 -1 -1 -1 -1 -1 -1 -0 -0 0 1 0 0 -0 -1 -1 -1 -2 -3 -4 -5 -5 -6 -6 -6 -6 -6 -6 -6 -6 -6 -5 -5 -5 -5 -6 -6 -6 -5 -5 -5 -5 -5 -4
-3 -3 -3 -3 -2 -2 -1 -1 -1 -1 -1 -1 -1 -0 -0 0 0 0 -0 -1 -1 -1 -2 -4 -5 -5 -5 -6 -6 -6 -6 -5 -6 -6 -6 -5 -5 -5 -5 -5 -6 -6 -5 -5 -5 -5 -5 -5 -4
-3 -3 -3 -3 -2 -2 -2 -1 -1 -1 -1 -1 -1 -1 -1 -1 -0 -0 -0 -1 -1 -2 -3 -4 -5 -5 -5 -6 -6 -6 -5 -5 -5 -5 -5 -5 -5 -5 -5 -5 -6 -6 -5 -5 -5 -5 -5 -4 -4
-3 -3 -2 -2 -2 -2 -2 -2 -2 -2 -1 -1 -1 -1 -1 -1 -1 -0 -1 -1 -1 -2 -3 -4 -4 -5 -5 -6 -6 -5 -5 -5 -5 -5 -5 -5 -5 -5 -5 -5 -5 -5 -5 -5 -5 -5 -4 -4 -4
-3 -2 -1 -1 -2 -2 -2 -2 -2 -2 -1 -1 -1 -1 -1 -1 -1 -1 -1 -1 -2 -2 -3 -3 -4 -4 -5 -5 -5 -5 -5 -5 -5 -5 -5 -5 -5 -5 -5 -5 -5 -5 -5 -4 -4 -4 -4 -4 -4
-2 -1 -1 -1 -1 -2 -2 -2 -2 -2 -2 -1 -1 -1 -1 -1 -1 -1 -1 -2 -2 -3 -3 -3 -3 -4 -4 -5 -5 -5 -5 -5 -5 -5 -5 -5 -5 -5 -5 -5 -5 -5 -4 -4 -4 -4 -4 -4 -4
-2 -1 -1 -1 -1 -1 -2 -2 -2 -2 -2 -2 -2 -2 -1 -2 -2 -2 -2 -2 -2 -3 -3 -3 -3 -4 -4 -4 -4 -4 -4 -5 -5 -5 -5 -5 -5 -5 -5 -5 -5 -4 -4 -4 -4 -4 -4 -4 -5
-2 -2 -1 -1 -0 -1 -1 -2 -2 -2 -2 -2 -2 -2 -2 -2 -2 -2 -2 -2 -2 -2 -3 -3 -3 -3 -4 -4 -4 -4 -4 -4 -4 -4 -4 -5 -5 -5 -5 -5 -5 -4 -4 -4 -4 -4 -4 -4 -4
-3 -2 -1 -1 -1 -1 -2 -2 -2 -2 -2 -2 -2 -2 -2 -2 -2 -2 -2 -2 -2 -2 -2 -3 -3 -3 -3 -3 -3 -3 -3 -3 -4 -4 -4 -4 -4 -5 -5 -5 -5 -4 -4 -4 -4 -4 -4 -4 -4
-3 -2 -1 -1 -1 -2 -3 -3 -3 -3 -2 -2 -3 -2 -2 -2 -2 -2 -2 -2 -2 -2 -2 -2 -3 -3 -3 -3 -3 -3 -3 -3 -3 -3 -4 -4 -4 -4 -5 -5 -5 -5 -4 -4 -4 -4 -4 -4 -3
-2 -1 -0 1 0 -1 -3 -3 -3 -3 -3 -3 -3 -3 -3 -3 -3 -3 -2 -2 -2 -2 -2 -2 -3 -3 -3 -3 -3 -3 -3 -3 -3 -3 -3 -3 -4 -5 -5 -5 -5 -5 -5 -4 -4 -4 -4 -3 -3
1 1 2 3 3 1 -1 -2 -3 -4 -4 -4 -3 -3 -3 -3 -3 -3 -3 -2 -2 -2 -2 -2 -3 -3 -3 -3 -3 -3 -3 -3 -3 -3 -3 -3 -4 -5 -5 -5 -5 -5 -5 -5 -5 -4 -3 -3 -2
4 3 3 4 3 2 1 -1 -3 -4 -4 -4 -3 -3 -3 -3 -3 -3 -3 -2 -2 -2 -2 -2 -3 -3 -3 -3 -3 -3 -3 -3 -2 -2 -3 -3 -4 -4 -5 -5 -5 -5 -5 -5 -5 -4 -3 -2 -1
5 4 3 3 3 3 2 0 -2 -4 -4 -4 -4 -3 -3 -3 -3 -3 -3 -2 -2 -2 -2 -2 -3 -3 -3 -3 -3 -3 -3 -2 -2 -2 -3 -3 -4 -4 -5 -5 -5 -5 -5 -5 -4 -3 -2 -1 0
4 3 2 2 2 2 1 0 -2 -4 -5 -4 -4 -3 -3 -3 -2 -2 -2 -2 -2 -2 -2 -2 -2 -3 -3 -3 -3 -3 -2 -2 -2 -2 -3 -3 -4 -4 -5 -5 -5 -5 -5 -5 -4 -3 -2 -1 0
4 3 2 2 2 2 1 0 -2 -3 -4 -5 -4 -4 -3 -2 -2 -2 -2 -2 -2 -2 -2 -2 -2 -3 -3 -2 -2 -2 -2 -2 -2 -2 -3 -4 -4 -5 -5 -5 -5 -5 -5 -4 -4 -3 -2 -1 0
4 3 2 2 2 2 2 0 -1 -3 -4 -4 -5 -4 -3 -2 -2 -2 -2 -2 -2 -2 -3 -3 -3 -3 -3 -2 -2 -2 -1 -2 -2 -3 -4 -4 -5 -5 -6 -5 -5 -5 -5 -5 -4 -3 -2 -1 -0
4 3 2 2 3 3 2 1 -1 -3 -4 -4 -5 -5 -4 -3 -2 -1 -2 -2 -2 -3 -3 -4 -4 -4 -3 -3 -2 -2 -2 -2 -3 -4 -4 -5 -5 -6 -6 -6 -5 -5 -5 -5 -4 -3 -2 -1 -0
5 4 3 2 3 3 3 2 1 -1 -3 -4 -4 -4 -4 -3 -2 -2 -2 -2 -2 -3 -3 -4 -4 -4 -4 -3 -3 -3 -2 -3 -3 -4 -4 -5 -5 -6 -6 -5 -5 -5 -5 -5 -5 -4 -2 -1 -1
5 5 4 3 2 3 3 2 2 0 -2 -3 -4 -4 -3 -3 -2 -2 -2 -2 -2 -2 -3 -3 -4 -4 -4 -4 -3 -3 -3 -2 -3 -4 -4 -5 -5 -5 -5 -5 -5 -5 -5 -5 -5 -4 -3 -1 -1
6 6 5 4 3 3 3 3 2 1 -0 -2 -3 -3 -3 -3 -2 -2 -2 -2 -2 -2 -2 -2 -3 -3 -4 -4 -4 -3 -3 -3 -3 -3 -4 -5 -5 -5 -5 -5 -5 -5 -6 -6 -5 -4 -3 -2 -1
8 7 5 4 3 3 3 3 3 3 1 -1 -2 -3 -3 -3 -3 -2 -2 -2 -2 -2 -2 -2 -3 -3 -3 -4 -4 -4 -4 -3 -3 -4 -4 -4 -5 -5 -5 -5 -5 -6 -6 -6 -5 -4 -3 -2 -1
9 7 4 2 2 3 4 4 4 4 3 1 -1 -2 -3 -3 -3 -3 -3 -3 -3 -2 -2 -2 -2 -3 -3 -3 -4 -4 -4 -4 -4 -4 -4 -4 -4 -4 -5 -6 -6 -6 -6 -6 -5 -5 -4 -3 -2
8 7 5 2 2 4 5 5 5 5 4 2 1 -1 -2 -3 -3 -3 -3 -3 -3 -3 -2 -2 -2 -2 -3 -3 -3 -4 -4 -4 -4 -4 -4 -4 -4 -5 -5 -6 -6 -6 -6 -5 -5 -5 -4 -3 -2
8 7 6 4 3 3 4 5 5 5 4 3 2 0 -1 -2 -2 -2 -3 -3 -3 -3 -3 -3 -3 -3 -3 -3 -4 -4 -4 -4 -4 -4 -4 -4 -4 -5 -5 -6 -6 -6 -6 -5 -5 -4 -4 -3 -2
8 8 7 6 3 2 2 4 5 5 4 3 2 1 0 -0 -1 -2 -2 -3 -3 -3 -3 -3 -3 -3 -3 -4 -4 -4 -5 -5 -5 -5 -5 -5 -5 -5 -6 -6 -6 -6 -6 -5 -5 -4 -4 -3 -3
8 8 7 5 3 2 1 3 5 5 5 4 3 2 1 1 0 -1 -2 -3 -3 -3 -3 -3 -3 -3 -4 -4 -4 -4 -5 -5 -5 -5 -5 -5 -6 -6 -6 -6 -6 -6 -6 -6 -5 -5 -4 -4 -3
8 7 6 5 3 2 2 3 6 6 5 4 3 2 2 1 1 0 -1 -2 -3 -3 -3 -3 -3 -4 -4 -4 -4 -4 -5 -5 -5 -5 -6 -6 -6 -6 -7 -7 -7 -6 -6 -6 -5 -5 -4 -4 -4